カタログに戻る

STARLINK-36864

運用中通信VLEO
NORAD 68045·PAYLOAD·🇺🇸 United States

打ち上げ Mar 2, 2026 から Vandenberg Space Force Base

Loading…

次のパス (今後24時間)

TLE

最新Source: CelesTrak SupGP

元期: Sep 14, 2026, 22:41 UTC

1 68045C 26041F   26257.94562500  .00035526  00000+0  10495-2 0  2577
2 68045  53.1573 245.7804 0001425  93.4643 316.8559 15.34377720    17

AllMySatでSTARLINK-36864をリアルタイム追跡

Download on the App Store